Regional Weather Roundup
Issued by NWS

Home | Current Version | Previous Version | Graphics & Text | Print | Product List | Glossary Off
Versions: 1 2 3 4 5 6 7 8 9 10 11 12 13 14 15 16 17 18 19 20 21 22 23 24 25 26 27 28 29 30 31 32 33 34 35 36 37 38 39 40 41 42 43 44 45 46 47 48 49 50

000
ASUS43 KTOP 190008
RWRKS

WEATHER ROUNDUP FOR KANSAS
NATIONAL WEATHER SERVICE GOODLAND KS
600 PM CST THU DEC 18 2014

NOTE:  "FAIR" INDICATES FEW OR NO CLOUDS BELOW 12,000 FEET WITH NO
SIGNIFICANT WEATHER AND/OR OBSTRUCTIONS TO VISIBILITY.

KSZ001>006-013>018-027>032-041>047-190100-
NORTHWEST KANSAS

CITY           SKY/WX    TMP DP  RH WIND       PRES   REMARKS
GOODLAND       CLEAR     30  27  88 CALM      30.08R
6HR MIN TEMP:  28; 6HR MAX TEMP:  43;

HAYS           CLOUDY    34  23  64 CALM      30.16R
HILL CITY      CLOUDY    32  27  81 VRB3      30.15R
6HR MIN TEMP:  29; 6HR MAX TEMP:  33;

RUSSELL        CLOUDY    30  28  92 SE5       30.15R
6HR MIN TEMP:  29; 6HR MAX TEMP:  32;

$$

KSZ061>065-074>080-084>089-190100-
SOUTHWEST KANSAS

CITY           SKY/WX    TMP DP  RH WIND       PRES   REMARKS
DODGE CITY     CLOUDY    33  29  85 E3        30.14R
6HR MIN TEMP:  30; 6HR MAX TEMP:  35;

ELKHART          N/A     29  23  78 SE7         N/A
GARDEN CITY    CLOUDY    34  31  88 S3        30.11S
6HR MIN TEMP:  30; 6HR MAX TEMP:  34;

GREAT BEND     CLOUDY    30  25  80 SE5       30.18R
LIBERAL        CLOUDY    36  30  80 E3        30.13R
PRATT          CLOUDY    34  32  93 NE5       30.17R
$$

KSZ066>073-081>083-090>101-190100-
SOUTHEAST KANSAS

CITY           SKY/WX    TMP DP  RH WIND       PRES   REMARKS
CHANUTE        CLOUDY    34  33  96 N5        30.20R
6HR MIN TEMP:  34; 6HR MAX TEMP:  35;

COFFEYVILLE    CLOUDY    38  35  89 N6        30.20S
6HR MIN TEMP:  36; 6HR MAX TEMP:  39;

HUTCHINSON     CLOUDY    31  27  85 N3        30.19R
6HR MIN TEMP:  31; 6HR MAX TEMP:  35;

MEDICINE LODGE   N/A     36  31  82 NE5       30.17R
NEWTON         CLOUDY    30  25  80 NE6       30.20S
PARSONS        CLOUDY    36  35  96 N5        30.21R
6HR MIN TEMP:  36; 6HR MAX TEMP:  38;

WICHITA INTL   CLOUDY    34  29  82 N7        30.19R
6HR MIN TEMP:  33; 6HR MAX TEMP:  36;

WICHITA JABRA  CLOUDY    32  29  88 NE6       30.20R
6HR MIN TEMP:  32; 6HR MAX TEMP:  34;

WICHITA MCCONL CLOUDY    33  30  90 N5        30.19R
WINFIELD       CLOUDY    35  33  92 N6        30.20R
6HR MIN TEMP:  34; 6HR MAX TEMP:  36;

$$

KSZ007>012-019>026-033>040-048>060-102>105-190100-
NORTHEAST KANSAS

CITY           SKY/WX    TMP DP  RH WIND       PRES   REMARKS
CONCORDIA      CLOUDY    29  27  92 CALM      30.18S
6HR MIN TEMP:  28; 6HR MAX TEMP:  32;

EMPORIA        CLOUDY    32  30  92 CALM      30.19R
6HR MIN TEMP:  31; 6HR MAX TEMP:  32;

LAWRENCE       CLOUDY    32  29  88 CALM      30.22R
6HR MIN TEMP:  32; 6HR MAX TEMP:  33;

MANHATTAN      CLOUDY    33  29  85 CALM      30.21R
6HR MIN TEMP:  32; 6HR MAX TEMP:  34;

MARYSVILLE     CLOUDY    32  28  86 CALM      30.20S
OLATHE IND     CLOUDY    32  30  92 N5        30.21R FOG
6HR MIN TEMP:  32; 6HR MAX TEMP:  33; 6HR PCP: TRACE;

OLATHE EXE     CLOUDY    33  30  88 E5        30.20R
6HR MIN TEMP:  32; 6HR MAX TEMP:  33;

SALINA         CLOUDY    32  27  81 N3        30.20S
6HR MIN TEMP:  30; 6HR MAX TEMP:  32;

TOPEKA BILLARD CLOUDY    33  29  85 NE5       30.22R
6HR MIN TEMP:  32; 6HR MAX TEMP:  34;

TOPEKA FORBES  CLOUDY    33  30  88 CALM      30.21R
6HR MIN TEMP:  32; 6HR MAX TEMP:  34;

$$



USA.gov is the U.S. government's official web portal to all federal, state and local government web resources and services.